Regional Weather Roundup
Issued by NWS Kansas City/Pleasant Hill, MO

Home | Current Version | Previous Version | Graphics & Text | Print | Product List | Glossary Off
Versions: 1 2 3 4 5 6 7 8 9 10 11 12 13 14 15 16 17 18 19 20 21 22 23 24 25 26 27 28 29 30 31 32 33 34 35 36 37 38 39 40 41 42 43 44 45 46 47 48 49 50

000
ASUS43 KEAX 112311
RWREAX

WEATHER ROUNDUP FOR EASTERN KANSAS AND NORTHWEST MISSOURI
NATIONAL WEATHER SERVICE KANSAS CITY/PLEASANT HILL MO
600 PM CDT FRI JUL 11 2014

KSZ040-057-103>105-MOZ028-029-037-043-120000-
...KANSAS CITY METROPOLITAN AREA...

CITY           SKY/WX    TMP DP  RH WIND       PRES   REMARKS
K.C. INTL      PTSUNNY   87  75  67 S10       30.01R HX  96
K.C. DOWNTOWN  MOSUNNY   89  72  56 S13       29.99F HX  96
LEES SUMMIT    MOSUNNY   88  75  65 SW13      30.02F HX  97
OLATHE - IXD   MOSUNNY   88  74  63 S10       30.02F HX  96
OLATHE - OJC   MOSUNNY   87  74  64 S8        30.01F HX  95
LAWRENCE       MOSUNNY   90  76  63 S7        29.99F HX 101

$$

MOZ001>008-011>017-020>025-030>033-038>040-044>046-053-054-120000-
...NORTHERN AND CENTRAL MISSOURI...

CITY           SKY/WX    TMP DP  RH WIND       PRES   REMARKS
ST. JOSEPH     PTSUNNY   88  75  65 S15       29.97F HX  97
MOSBY          PTCLDY    88  72  58 S7        30.00S HX  94
WARRENSBURG    MOSUNNY   88  72  58 S9        30.02S HX  94
WHITEMAN AFB   MOSUNNY   88  69  53 SW14      30.02F HX  93
CLINTON        PTSUNNY   90  75  62 SW8       30.04S HX 100
SEDALIA        MOSUNNY   89  75  63 SW13      30.04F HX  99
WARSAW         NOT AVBL
MARSHALL         N/A     90  77  66 S7        30.02S HAZE    HX 102
CHILLICOTHE      N/A     86  74  67 S7        30.01F HX  94
KIRKSVILLE     PTSUNNY   83  74  74 S10       30.03F

$$

MOZ041-047>049-056>058-063>065-088>090-097-120000-
...EASTERN AND SOUTHERN MISSOURI...

CITY           SKY/WX    TMP DP  RH WIND       PRES   REMARKS
ST. LOUIS INTL PTSUNNY   89  68  49 S13       30.07F HX  93
SPIRIT OF STL  PTSUNNY   88  68  51 S8        30.05F HX  91
COLUMBIA       PTSUNNY   87  75  67 S12G20    30.04F HX  96
JEFFERSON CITY PTSUNNY   88  74  63 S6        30.02F HX  96
HANNIBAL       CLOUDY    84  70  61 SE3       30.05F
ROLLA          MOSUNNY   85  71  63 S10       30.07F HX  90
LEBANON        MOSUNNY   90  70  51 NW8       30.10F HX  95
OSAGE BEACH    MOSUNNY   90  73  58 SW8       30.06S HX  98
SPRINGFIELD    MOSUNNY   88  69  53 S9        30.09F HX  92
BRANSON        MOSUNNY   93  70  46 S6        30.12F HX  99
NEVADA         MOSUNNY   90  72  55 S7        30.06S HX  96
JOPLIN         MOSUNNY   90  69  50 S13       30.07F HX  94
WEST PLAINS    MOSUNNY   85  72  65 S8        30.14F HX  91
PIEDMONT       SUNNY     88  70  55 S3        30.11F HX  92
MALDEN         SUNNY     90  66  45 SW7       30.10F HX  92

$$

IAZ060-094-KSZ022-034>040-054-083-096-NEZ052-066-093-120000-
...KANSAS...SOUTHEAST NEBRASKA AND IOWA...

CITY           SKY/WX    TMP DP  RH WIND       PRES   REMARKS
TOPEKA         MOSUNNY   94  73  50 S12       29.98F HX 103
MANHATTAN      SUNNY     97  65  34 SW16      29.95F HX  99
EMPORIA        MOSUNNY   91  69  48 S18       30.01S HX  96
CHANUTE        SUNNY     90  70  51 S13       30.04F HX  95
WICHITA        PTSUNNY   92  64  39 S20       30.00F HX  93
OMAHA          CLOUDY    82  72  71 E6        29.97S
LINCOLN        MOSUNNY   90  72  55 S5        29.96R HX  97
FALLS CITY     PTSUNNY   91  75  59 S12G18    29.95F HX 101
LAMONI         CLOUDY    80  72  76 S5        30.01S
DES MOINES     CLOUDY    78  71  79 E7        30.01R

$$



USA.gov is the U.S. government's official web portal to all federal, state and local government web resources and services.